Time,TemperatureF,DewpointF,PressureIn,WindDirection,WindDirectionDegrees,WindSpeedMPH,WindSpeedGustMPH,Humidity,HourlyPrecipIn,Conditions,Clouds,dailyrainin,SoftwareType,DateUTC
2013-08-20 00:23:00,82.0,73.0,30.03,ESE,116,4.0,9.0,74,-99.99,,,-99.99,,2013-08-20 04:23:00,
2013-08-20 00:54:00,82.0,74.0,30.03,ESE,119,5.0,9.0,75,-99.99,,,-99.99,,2013-08-20 04:54:00,
2013-08-20 01:22:00,82.0,73.0,30.03,ESE,109,5.0,9.0,74,-99.99,,,-99.99,,2013-08-20 05:22:00,
2013-08-20 01:42:00,82.0,73.0,30.03,SE,125,5.0,9.0,74,-99.99,,,-99.99,,2013-08-20 05:42:00,
2013-08-20 01:52:00,81.0,73.0,30.03,ESE,122,5.0,10.0,74,-99.99,,,-99.99,,2013-08-20 05:52:00,
2013-08-20 02:02:00,81.0,73.0,30.03,ESE,122,5.0,10.0,74,-99.99,,,-99.99,,2013-08-20 06:02:00,
2013-08-20 02:22:00,82.0,73.0,30.03,ESE,118,5.0,12.0,74,-99.99,,,-99.99,,2013-08-20 06:22:00,
2013-08-20 02:42:00,82.0,74.0,30.02,ESE,119,6.0,12.0,76,-99.99,,,-99.99,,2013-08-20 06:42:00,
2013-08-20 02:52:00,82.0,74.0,30.02,ESE,119,6.0,12.0,76,-99.99,,,-99.99,,2013-08-20 06:52:00,
2013-08-20 03:22:00,82.0,75.0,30.01,ESE,110,7.0,14.0,78,-99.99,,,-99.99,,2013-08-20 07:22:00,
2013-08-20 03:42:00,80.0,71.0,30.00,ESE,113,4.0,9.0,73,-99.99,,,-99.99,,2013-08-20 07:42:00,
2013-08-20 04:11:00,80.0,71.0,30.00,ESE,114,5.0,9.0,74,-99.99,,,-99.99,,2013-08-20 08:11:00,
2013-08-20 04:22:00,80.0,71.0,30.00,ESE,114,5.0,9.0,74,-99.99,,,-99.99,,2013-08-20 08:22:00,
2013-08-20 04:42:00,81.0,71.0,30.00,ESE,117,5.0,8.0,73,-99.99,,,-99.99,,2013-08-20 08:42:00,
2013-08-20 05:21:00,80.0,73.0,29.99,ESE,111,4.0,9.0,76,-99.99,,,-99.99,,2013-08-20 09:21:00,
2013-08-20 05:42:00,80.0,72.0,29.99,ESE,112,5.0,10.0,76,-99.99,,,-99.99,,2013-08-20 09:42:00,
2013-08-20 06:23:00,81.0,74.0,29.99,SE,129,7.0,12.0,78,-99.99,,,-99.99,,2013-08-20 10:23:00,
2013-08-20 06:32:00,81.0,74.0,29.99,SE,129,7.0,12.0,78,-99.99,,,-99.99,,2013-08-20 10:32:00,
2013-08-20 06:52:00,81.0,73.0,30.00,ESE,120,6.0,14.0,78,-99.99,,,-99.99,,2013-08-20 10:52:00,
2013-08-20 07:11:00,80.0,73.0,30.00,SE,136,5.0,10.0,77,-99.99,,,-99.99,,2013-08-20 11:11:00,
2013-08-20 07:22:00,80.0,73.0,30.00,SE,136,5.0,10.0,77,-99.99,,,-99.99,,2013-08-20 11:22:00,
2013-08-20 07:42:00,81.0,74.0,30.01,SE,130,7.0,11.0,80,-99.99,,,-99.99,,2013-08-20 11:42:00,
2013-08-20 08:21:00,81.0,74.0,30.01,SE,132,6.0,10.0,78,-99.99,,,-99.99,,2013-08-20 12:21:00,
2013-08-20 08:42:00,82.0,74.0,30.02,SE,133,8.0,14.0,76,-99.99,,,-99.99,,2013-08-20 12:42:00,
2013-08-20 08:52:00,82.0,74.0,30.02,SE,133,8.0,14.0,76,-99.99,,,-99.99,,2013-08-20 12:52:00,
2013-08-20 09:11:00,83.0,73.0,30.03,SE,135,8.0,15.0,72,-99.99,,,-99.99,,2013-08-20 13:11:00,
2013-08-20 09:22:00,83.0,73.0,30.03,SE,135,8.0,15.0,72,-99.99,,,-99.99,,2013-08-20 13:22:00,
2013-08-20 09:42:00,83.0,73.0,30.03,ESE,120,9.0,18.0,70,-99.99,,,-99.99,,2013-08-20 13:42:00,
2013-08-20 09:52:00,83.0,73.0,30.03,ESE,120,9.0,18.0,70,-99.99,,,-99.99,,2013-08-20 13:52:00,
2013-08-20 10:11:00,84.0,74.0,30.04,ESE,123,8.0,15.0,72,-99.99,,,-99.99,,2013-08-20 14:11:00,
2013-08-20 10:42:00,85.0,74.0,30.04,SE,128,10.0,15.0,68,-99.99,,,-99.99,,2013-08-20 14:42:00,
2013-08-20 11:22:00,85.0,74.0,30.04,ESE,123,10.0,19.0,70,-99.99,,,-99.99,,2013-08-20 15:22:00,
2013-08-20 11:34:00,85.0,74.0,30.04,ESE,123,10.0,19.0,70,-99.99,,,-99.99,,2013-08-20 15:34:00,
2013-08-20 11:43:00,85.0,74.0,30.04,ESE,123,10.0,19.0,70,-99.99,,,-99.99,,2013-08-20 15:43:00,
2013-08-20 12:15:00,85.0,75.0,30.05,SE,125,10.0,16.0,70,-99.99,,,-99.99,,2013-08-20 16:15:00,
2013-08-20 12:30:00,-999.0,-99.9,30.05,SE,125,10.0,16.0,70,-99.99,,,-99.99,,2013-08-20 16:30:00,
2013-08-20 12:39:00,85.0,75.0,30.05,SE,125,10.0,16.0,70,-99.99,,,-99.99,,2013-08-20 16:39:00,
2013-08-20 12:53:00,85.0,75.0,30.05,SE,130,11.0,17.0,70,-99.99,,,-99.99,,2013-08-20 16:53:00,
2013-08-20 13:11:00,86.0,75.0,30.05,SE,125,11.0,18.0,69,-99.99,,,-99.99,,2013-08-20 17:11:00,
2013-08-20 13:12:00,86.0,75.0,30.05,SE,125,11.0,18.0,69,-99.99,,,-99.99,,2013-08-20 17:12:00,
2013-08-20 13:24:00,86.0,75.0,30.05,SE,125,11.0,18.0,69,-99.99,,,-99.99,,2013-08-20 17:24:00,
2013-08-20 13:43:00,86.0,75.0,30.05,SE,125,11.0,18.0,69,-99.99,,,-99.99,,2013-08-20 17:43:00,
2013-08-20 13:52:00,86.0,75.0,30.05,SE,125,11.0,18.0,69,-99.99,,,-99.99,,2013-08-20 17:52:00,
2013-08-20 14:02:00,86.0,75.0,30.05,SE,125,11.0,18.0,69,-99.99,,,-99.99,,2013-08-20 18:02:00,